| time (UTC) | temp F | wind direction | speed MPH | gust MPH | rain 1hr in | rain 24hr in | rain mn in | humidity % | barometer mb |
| 20260503212949 | 64 | 159 | 5.0 | 9.0 | 0.00 | 0.00 | 0.00 | 32 | 1048.8 |
| 20260503212446 | 64 | 185 | 7.0 | 11.0 | 0.00 | 0.00 | 0.00 | 34 | 1049.1 |
| 20260503211943 | 64 | 214 | 4.0 | 10.0 | 0.00 | 0.00 | 0.00 | 32 | 1049.0 |
| 20260503211441 | 64 | 232 | 6.0 | 9.0 | 0.00 | 0.00 | 0.00 | 31 | 1049.3 |
| 20260503210936 | 63 | 164 | 4.0 | 4.0 | 0.00 | 0.00 | 0.00 | 33 | 1049.3 |
| 20260503210433 | 63 | 224 | 6.0 | 8.0 | 0.00 | 0.00 | 0.00 | 31 | 1049.3 |
| 20260503205928 | 63 | 224 | 6.0 | 9.0 | 0.00 | 0.00 | 0.00 | 32 | 1049.3 |
| 20260503205425 | 63 | 153 | 4.0 | 14.0 | 0.00 | 0.00 | 0.00 | 35 | 1049.4 |
| 20260503204921 | 63 | 278 | 3.0 | 7.0 | 0.00 | 0.00 | 0.00 | 33 | 1049.6 |
| 20260503204419 | 63 | 269 | 5.0 | 9.0 | 0.00 | 0.00 | 0.00 | 31 | 1049.4 |
| 20260503203916 | 63 | 209 | 4.0 | 7.0 | 0.00 | 0.00 | 0.00 | 32 | 1049.6 |
| 20260503203413 | 63 | 205 | 3.0 | 8.0 | 0.00 | 0.00 | 0.00 | 36 | 1049.7 |
| 20260503202910 | 63 | 113 | 5.0 | 11.0 | 0.00 | 0.00 | 0.00 | 31 | 1049.9 |
| 20260503202408 | 62 | 247 | 5.0 | 10.0 | 0.00 | 0.00 | 0.00 | 33 | 1050.0 |
| 20260503201906 | 62 | 205 | 6.0 | 10.0 | 0.00 | 0.00 | 0.00 | 32 | 1050.3 |
| 20260503201403 | 62 | 270 | 9.0 | 13.0 | 0.00 | 0.00 | 0.00 | 32 | 1050.1 |
| 20260503200900 | 63 | 301 | 6.0 | 10.0 | 0.00 | 0.00 | 0.00 | 30 | 1050.2 |
| 20260503200356 | 62 | 198 | 2.0 | 6.0 | 0.00 | 0.00 | 0.00 | 37 | 1050.4 |
| 20260503195853 | 62 | 191 | 7.0 | 10.0 | 0.00 | 0.00 | 0.00 | 31 | 1050.9 |
| 20260503195349 | 63 | 182 | 6.0 | 10.0 | 0.00 | 0.00 | 0.00 | 30 | 1050.7 |
| 20260503194847 | 63 | 238 | 6.0 | 11.0 | 0.00 | 0.00 | 0.00 | 32 | 1050.8 |
| 20260503194343 | 63 | 240 | 3.0 | 8.0 | 0.00 | 0.00 | 0.00 | 30 | 1050.8 |
| 20260503193839 | 63 | 269 | 4.0 | 7.0 | 0.00 | 0.00 | 0.00 | 37 | 1051.2 |
| 20260503193335 | 62 | 214 | 3.0 | 7.0 | 0.00 | 0.00 | 0.00 | 37 | 1051.1 |
| 20260503192831 | 62 | 203 | 6.0 | 9.0 | 0.00 | 0.00 | 0.00 | 34 | 1051.4 |
| 20260503192327 | 62 | 226 | 3.0 | 10.0 | 0.00 | 0.00 | 0.00 | 36 | 1051.2 |
| 20260503191823 | 62 | 162 | 3.0 | 10.0 | 0.00 | 0.00 | 0.00 | 38 | 1051.4 |
| 20260503191320 | 62 | 211 | 2.0 | 10.0 | 0.00 | 0.00 | 0.00 | 36 | 1051.4 |
| 20260503190817 | 61 | 167 | 3.0 | 4.0 | 0.00 | 0.00 | 0.00 | 37 | 1051.5 |
| 20260503190314 | 61 | 209 | 3.0 | 11.0 | 0.00 | 0.00 | 0.00 | 37 | 1051.3 |
| 20260503185811 | 61 | 211 | 10.0 | 11.0 | 0.00 | 0.00 | 0.00 | 33 | 1051.5 |
| 20260503185307 | 61 | 232 | 3.0 | 6.0 | 0.00 | 0.00 | 0.00 | 35 | 1051.5 |
| 20260503184807 | 61 | 248 | 2.0 | 4.0 | 0.00 | 0.00 | 0.00 | 41 | 1051.8 |
| 20260503184304 | 60 | 149 | 4.0 | 9.0 | 0.00 | 0.00 | 0.00 | 37 | 1051.7 |
| 20260503183759 | 60 | 161 | 9.0 | 11.0 | 0.00 | 0.00 | 0.00 | 36 | 1051.8 |
| 20260503183257 | 60 | 209 | 11.0 | 14.0 | 0.00 | 0.00 | 0.00 | 32 | 1051.9 |
| 20260503182755 | 60 | 178 | 7.0 | 8.0 | 0.00 | 0.00 | 0.00 | 35 | 1052.0 |
| 20260503182253 | 60 | 210 | 5.0 | 8.0 | 0.00 | 0.00 | 0.00 | 32 | 1051.9 |
| 20260503181750 | 60 | 190 | 6.0 | 8.0 | 0.00 | 0.00 | 0.00 | 34 | 1051.9 |
| 20260503181247 | 60 | 214 | 4.0 | 6.0 | 0.00 | 0.00 | 0.00 | 36 | 1052.2 |
| 20260503180743 | 59 | 162 | 8.0 | 10.0 | 0.00 | 0.00 | 0.00 | 34 | 1052.2 |
| 20260503180242 | 60 | 214 | 6.0 | 10.0 | 0.00 | 0.00 | 0.00 | 34 | 1052.1 |
| 20260503175738 | 59 | 190 | 3.0 | 6.0 | 0.00 | 0.00 | 0.00 | 37 | 1052.3 |
| 20260503175236 | 60 | 189 | 8.0 | 11.0 | 0.00 | 0.00 | 0.00 | 32 | 1052.4 |
| 20260503174732 | 60 | 215 | 3.0 | 9.0 | 0.00 | 0.00 | 0.00 | 39 | 1052.7 |
| 20260503174230 | 60 | 202 | 4.0 | 11.0 | 0.00 | 0.00 | 0.00 | 37 | 1052.8 |
| 20260503173730 | 60 | 223 | 4.0 | 7.0 | 0.00 | 0.00 | 0.00 | 36 | 1052.6 |
| 20260503173226 | 60 | 199 | 5.0 | 7.0 | 0.00 | 0.00 | 0.00 | 37 | 1052.8 |
| 20260503172724 | 59 | 139 | 4.0 | 8.0 | 0.00 | 0.00 | 0.00 | 43 | 1052.7 |
| 20260503172220 | 59 | 184 | 6.0 | 10.0 | 0.00 | 0.00 | 0.00 | 33 | 1052.8 |
| 20260503171717 | 59 | 169 | 4.0 | 11.0 | 0.00 | 0.00 | 0.00 | 36 | 1052.9 |
| 20260503171214 | 59 | 175 | 6.0 | 8.0 | 0.00 | 0.00 | 0.00 | 33 | 1053.2 |
| 20260503170711 | 60 | 216 | 6.0 | 9.0 | 0.00 | 0.00 | 0.00 | 35 | 1053.2 |
| 20260503170208 | 59 | 153 | 1.0 | 3.0 | 0.00 | 0.00 | 0.00 | 35 | 1053.3 |
| 20260503160130 | 57 | 203 | 2.0 | 3.0 | 0.00 | 0.00 | 0.00 | 34 | 1054.0 |
| 20260503150559 | 56 | 244 | 2.0 | 4.0 | 0.00 | 0.00 | 0.00 | 36 | 1054.2 |
| 20260503130949 | 46 | 173 | 4.0 | 6.0 | 0.00 | 0.00 | 0.00 | 68 | 1054.2 |
| 20260503130447 | 45 | 212 | 2.0 | 3.0 | 0.00 | 0.00 | 0.00 | 71 | 1054.3 |
| 20260503110343 | 31 | 28 | 0.0 | 0.0 | 0.00 | 0.00 | 0.00 | 97 | 1053.4 |
| 20260503090235 | 32 | 28 | 0.0 | 0.0 | 0.00 | 0.00 | 0.00 | 96 | 1053.2 |
| 20260503081202 | 31 | 28 | 0.0 | 0.0 | 0.00 | 0.00 | 0.00 | 94 | 1052.8 |
| 20260503080657 | 31 | 28 | 0.0 | 0.0 | 0.00 | 0.00 | 0.00 | 94 | 1052.7 |
| 20260503080155 | 32 | 28 | 0.0 | 0.0 | 0.00 | 0.00 | 0.00 | 94 | 1052.7 |
| 20260503072632 | 33 | 28 | 0.0 | 0.0 | 0.00 | 0.00 | 0.00 | 93 | 1052.5 |
| 20260503072128 | 33 | 28 | 0.0 | 0.0 | 0.00 | 0.00 | 0.00 | 93 | 1052.5 |
| 20260503071625 | 33 | 28 | 0.0 | 0.0 | 0.00 | 0.00 | 0.00 | 93 | 1052.4 |
| 20260503071122 | 33 | 28 | 0.0 | 0.0 | 0.00 | 0.00 | 0.00 | 92 | 1052.6 |
| 20260503070619 | 33 | 28 | 1.0 | 1.0 | 0.00 | 0.00 | 0.00 | 92 | 1052.5 |
| 20260503070117 | 33 | 28 | 0.0 | 0.0 | 0.00 | 0.00 | 0.00 | 92 | 1052.7 |
| 20260503055037 | 35 | 28 | 0.0 | 0.0 | 0.00 | 0.00 | 0.00 | 87 | 1052.9 |
| 20260503054533 | 35 | 28 | 0.0 | 0.0 | 0.00 | 0.00 | 0.00 | 87 | 1052.6 |
| 20260503054031 | 35 | 28 | 0.0 | 0.0 | 0.00 | 0.00 | 0.00 | 87 | 1052.7 |
| 20260503053529 | 36 | 28 | 0.0 | 0.0 | 0.00 | 0.00 | 0.00 | 85 | 1052.5 |
| 20260503053026 | 36 | 28 | 0.0 | 0.0 | 0.00 | 0.00 | 0.00 | 84 | 1052.7 |
| 20260503052523 | 36 | 28 | 0.0 | 0.0 | 0.00 | 0.00 | 0.00 | 83 | 1052.8 |
| 20260503052019 | 37 | 28 | 0.0 | 0.0 | 0.00 | 0.00 | 0.00 | 82 | 1052.9 |
| 20260503051515 | 37 | 28 | 0.0 | 0.0 | 0.00 | 0.00 | 0.00 | 82 | 1052.9 |
| 20260503051013 | 37 | 28 | 0.0 | 0.0 | 0.00 | 0.00 | 0.00 | 80 | 1052.8 |
| 20260503050508 | 37 | 28 | 0.0 | 0.0 | 0.00 | 0.00 | 0.00 | 80 | 1052.7 |
| 20260503050006 | 38 | 28 | 0.0 | 0.0 | 0.00 | 0.00 | 0.00 | 77 | 1053.0 |
| 20260503045503 | 39 | 28 | 0.0 | 0.0 | 0.00 | 0.00 | 0.00 | 77 | 1052.8 |
| 20260503045000 | 39 | 28 | 0.0 | 0.0 | 0.00 | 0.00 | 0.00 | 74 | 1052.9 |
| 20260503044457 | 40 | 28 | 0.0 | 0.0 | 0.00 | 0.00 | 0.00 | 73 | 1052.7 |
| 20260503043954 | 40 | 28 | 0.0 | 0.0 | 0.00 | 0.00 | 0.00 | 72 | 1052.9 |
| 20260503043450 | 41 | 28 | 0.0 | 0.0 | 0.00 | 0.00 | 0.00 | 67 | 1052.8 |
| 20260503042947 | 42 | 28 | 0.0 | 1.0 | 0.00 | 0.00 | 0.00 | 66 | 1052.9 |
| 20260503042443 | 42 | 28 | 0.0 | 1.0 | 0.00 | 0.00 | 0.00 | 65 | 1052.7 |
| 20260503041940 | 42 | 28 | 1.0 | 2.0 | 0.00 | 0.00 | 0.00 | 63 | 1052.6 |
| 20260503041437 | 43 | 33 | 2.0 | 2.0 | 0.00 | 0.00 | 0.00 | 62 | 1052.9 |
| 20260503040934 | 43 | 35 | 2.0 | 2.0 | 0.00 | 0.00 | 0.00 | 62 | 1052.8 |
| 20260503040432 | 43 | 35 | 1.0 | 1.0 | 0.00 | 0.00 | 0.00 | 61 | 1052.5 |
| 20260503035929 | 44 | 35 | 2.0 | 2.0 | 0.00 | 0.00 | 0.00 | 60 | 1052.4 |
| 20260503035425 | 44 | 31 | 2.0 | 3.0 | 0.00 | 0.00 | 0.00 | 60 | 1052.6 |
| 20260503034923 | 44 | 31 | 2.0 | 2.0 | 0.00 | 0.00 | 0.00 | 60 | 1052.5 |
| 20260503034421 | 44 | 31 | 2.0 | 3.0 | 0.00 | 0.00 | 0.00 | 60 | 1052.7 |
| 20260503033917 | 44 | 22 | 2.0 | 2.0 | 0.00 | 0.00 | 0.00 | 61 | 1052.5 |
| 20260503033415 | 44 | 36 | 2.0 | 3.0 | 0.00 | 0.00 | 0.00 | 61 | 1052.4 |
| 20260503032913 | 44 | 33 | 2.0 | 2.0 | 0.00 | 0.00 | 0.00 | 61 | 1052.7 |
| 20260503032411 | 43 | 44 | 2.0 | 3.0 | 0.00 | 0.00 | 0.00 | 62 | 1052.4 |
| 20260503031909 | 42 | 28 | 2.0 | 2.0 | 0.00 | 0.00 | 0.00 | 65 | 1052.4 |
| 20260503031406 | 43 | 26 | 1.0 | 1.0 | 0.00 | 0.00 | 0.00 | 68 | 1052.4 |
| 20260503030902 | 43 | 32 | 0.0 | 0.0 | 0.00 | 0.00 | 0.00 | 65 | 1052.6 |
| 20260503030359 | 44 | 32 | 0.0 | 1.0 | 0.00 | 0.00 | 0.00 | 64 | 1052.4 |
| 20260503025855 | 43 | 18 | 1.0 | 1.0 | 0.00 | 0.00 | 0.00 | 63 | 1052.4 |
| 20260503025353 | 42 | 345 | 1.0 | 1.0 | 0.00 | 0.00 | 0.00 | 67 | 1052.7 |
| 20260503024850 | 42 | 344 | 0.0 | 0.0 | 0.00 | 0.00 | 0.00 | 72 | 1052.4 |
| 20260503024346 | 43 | 344 | 0.0 | 0.0 | 0.00 | 0.00 | 0.00 | 76 | 1052.4 |
| 20260503023843 | 43 | 344 | 0.0 | 0.0 | 0.00 | 0.00 | 0.00 | 77 | 1052.1 |
| 20260503023341 | 44 | 344 | 0.0 | 0.0 | 0.00 | 0.00 | 0.00 | 70 | 1052.1 |
| 20260503022838 | 44 | 344 | 0.0 | 0.0 | 0.00 | 0.00 | 0.00 | 68 | 1052.0 |
| 20260503022338 | 43 | 344 | 0.0 | 0.0 | 0.00 | 0.00 | 0.00 | 69 | 1052.0 |
| 20260503021834 | 43 | 339 | 0.0 | 0.0 | 0.00 | 0.00 | 0.00 | 72 | 1052.1 |
| 20260503021330 | 42 | 338 | 1.0 | 1.0 | 0.00 | 0.00 | 0.00 | 74 | 1052.0 |
| 20260503020828 | 42 | 327 | 0.0 | 0.0 | 0.00 | 0.00 | 0.00 | 78 | 1052.0 |
| 20260503020326 | 42 | 327 | 0.0 | 0.0 | 0.00 | 0.00 | 0.00 | 76 | 1051.5 |
| 20260503015822 | 43 | 327 | 0.0 | 0.0 | 0.00 | 0.00 | 0.00 | 75 | 1051.6 |
| 20260503015319 | 43 | 327 | 0.0 | 0.0 | 0.00 | 0.00 | 0.00 | 74 | 1051.4 |
| 20260503014815 | 43 | 327 | 1.0 | 1.0 | 0.00 | 0.00 | 0.00 | 76 | 1051.6 |
| 20260503014313 | 44 | 327 | 0.0 | 0.0 | 0.00 | 0.00 | 0.00 | 75 | 1051.5 |
| 20260503013810 | 44 | 327 | 1.0 | 1.0 | 0.00 | 0.00 | 0.00 | 71 | 1051.4 |
| 20260503013307 | 45 | 328 | 0.0 | 0.0 | 0.00 | 0.00 | 0.00 | 69 | 1051.2 |
| 20260503012804 | 45 | 327 | 0.0 | 0.0 | 0.00 | 0.00 | 0.00 | 69 | 1051.2 |
| 20260503012302 | 45 | 327 | 0.0 | 0.0 | 0.00 | 0.00 | 0.00 | 68 | 1051.1 |
| 20260503011758 | 45 | 327 | 0.0 | 0.0 | 0.00 | 0.00 | 0.00 | 68 | 1051.3 |
| 20260503011255 | 45 | 327 | 0.0 | 0.0 | 0.00 | 0.00 | 0.00 | 69 | 1051.1 |
| 20260503010751 | 46 | 327 | 0.0 | 0.0 | 0.00 | 0.00 | 0.00 | 71 | 1051.2 |
| 20260503010249 | 46 | 328 | 0.0 | 0.0 | 0.00 | 0.00 | 0.00 | 72 | 1051.1 |
| 20260503005746 | 47 | 327 | 0.0 | 0.0 | 0.00 | 0.00 | 0.00 | 66 | 1051.0 |
| 20260503005243 | 47 | 327 | 0.0 | 0.0 | 0.00 | 0.00 | 0.00 | 60 | 1051.1 |
| 20260503004739 | 48 | 327 | 0.0 | 0.0 | 0.00 | 0.00 | 0.00 | 59 | 1051.0 |
| 20260503004237 | 48 | 327 | 0.0 | 0.0 | 0.00 | 0.00 | 0.00 | 59 | 1050.8 |
| 20260503003734 | 49 | 327 | 0.0 | 0.0 | 0.00 | 0.00 | 0.00 | 57 | 1051.0 |
| 20260503003231 | 49 | 327 | 0.0 | 0.0 | 0.00 | 0.00 | 0.00 | 55 | 1050.9 |
| 20260503002728 | 50 | 327 | 0.0 | 1.0 | 0.00 | 0.00 | 0.00 | 54 | 1050.7 |
| 20260503002225 | 51 | 327 | 1.0 | 1.0 | 0.00 | 0.00 | 0.00 | 53 | 1050.8 |
| 20260503001721 | 51 | 327 | 1.0 | 1.0 | 0.00 | 0.00 | 0.00 | 53 | 1050.7 |
| 20260503001217 | 51 | 328 | 0.0 | 1.0 | 0.00 | 0.00 | 0.00 | 53 | 1050.4 |
| 20260503000715 | 51 | 328 | 2.0 | 2.0 | 0.00 | 0.00 | 0.00 | 51 | 1050.4 |
| 20260503000213 | 51 | 328 | 0.0 | 1.0 | 0.00 | 0.00 | 0.00 | 50 | 1050.2 |
| 20260502235709 | 52 | 331 | 0.0 | 1.0 | 0.00 | 0.00 | 0.00 | 49 | 1050.2 |
| 20260502235208 | 52 | 318 | 2.0 | 2.0 | 0.00 | 0.00 | 0.00 | 48 | 1050.2 |
| 20260502234703 | 52 | 326 | 1.0 | 2.0 | 0.00 | 0.00 | 0.00 | 48 | 1050.1 |
| 20260502234200 | 52 | 277 | 1.0 | 2.0 | 0.00 | 0.00 | 0.00 | 50 | 1050.0 |
| 20260502233656 | 52 | 333 | 0.0 | 3.0 | 0.00 | 0.00 | 0.00 | 49 | 1050.2 |
| 20260502233153 | 52 | 337 | 0.0 | 1.0 | 0.00 | 0.00 | 0.00 | 48 | 1050.1 |
| 20260502232649 | 52 | 337 | 2.0 | 3.0 | 0.00 | 0.00 | 0.00 | 48 | 1050.3 |
| 20260502232147 | 53 | 267 | 3.0 | 3.0 | 0.00 | 0.00 | 0.00 | 46 | 1050.1 |
| 20260502231643 | 53 | 229 | 2.0 | 7.0 | 0.00 | 0.00 | 0.00 | 44 | 1050.1 |
| 20260502231141 | 54 | 329 | 2.0 | 7.0 | 0.00 | 0.00 | 0.00 | 43 | 1050.2 |
| 20260502230640 | 55 | 323 | 4.0 | 8.0 | 0.00 | 0.00 | 0.00 | 42 | 1050.1 |
| 20260502230138 | 56 | 285 | 2.0 | 7.0 | 0.00 | 0.00 | 0.00 | 43 | 1050.0 |
| 20260502225633 | 55 | 290 | 2.0 | 2.0 | 0.00 | 0.00 | 0.00 | 45 | 1050.1 |
| 20260502225131 | 54 | 271 | 2.0 | 2.0 | 0.00 | 0.00 | 0.00 | 46 | 1050.0 |
| 20260502224626 | 55 | 339 | 2.0 | 2.0 | 0.00 | 0.00 | 0.00 | 46 | 1050.1 |
| 20260502224123 | 55 | 357 | 1.0 | 2.0 | 0.00 | 0.00 | 0.00 | 47 | 1050.2 |
| 20260502223621 | 54 | 335 | 3.0 | 4.0 | 0.00 | 0.00 | 0.00 | 45 | 1050.0 |
| 20260502223119 | 54 | 345 | 3.0 | 4.0 | 0.00 | 0.00 | 0.00 | 46 | 1050.3 |
| 20260502222616 | 54 | 338 | 2.0 | 4.0 | 0.00 | 0.00 | 0.00 | 47 | 1050.2 |
| 20260502222112 | 54 | 347 | 2.0 | 3.0 | 0.00 | 0.00 | 0.00 | 47 | 1050.4 |
| 20260502221608 | 54 | 286 | 1.0 | 3.0 | 0.00 | 0.00 | 0.00 | 45 | 1050.3 |
| 20260502221106 | 54 | 266 | 2.0 | 2.0 | 0.00 | 0.00 | 0.00 | 46 | 1050.0 |
| 20260502220601 | 54 | 3 | 1.0 | 3.0 | 0.00 | 0.00 | 0.00 | 48 | 1050.2 |
| 20260502220058 | 54 | 337 | 2.0 | 4.0 | 0.00 | 0.00 | 0.00 | 46 | 1050.2 |
| 20260502215555 | 54 | 325 | 3.0 | 4.0 | 0.00 | 0.00 | 0.00 | 46 | 1050.2 |
| 20260502215052 | 54 | 239 | 1.0 | 3.0 | 0.00 | 0.00 | 0.00 | 46 | 1050.1 |
| 20260502214549 | 55 | 338 | 1.0 | 2.0 | 0.00 | 0.00 | 0.00 | 48 | 1050.0 |
| 20260502214047 | 55 | 272 | 2.0 | 8.0 | 0.00 | 0.00 | 0.00 | 48 | 1050.1 |
| 20260502213543 | 55 | 271 | 1.0 | 1.0 | 0.00 | 0.00 | 0.00 | 49 | 1049.9 |